DW6016 Weather Reports


time (UTC)temp
C
wind
direction
speed
KPH
gust
KPH
rain 1hr
cm
rain 24hr
cm
rain mn
cm
humidity
%
barometer
mb
20260831024925 19 273 0.0 0.0 0.00 0.00 0.00 64 1016.9
20260831024424 19 302 0.0 1.6 0.00 0.00 0.00 64 1016.6
20260831023919 20 300 0.0 0.0 0.00 0.00 0.00 64 1016.9
20260831023418 20 305 0.0 1.6 0.00 0.00 0.00 63 1016.9
20260831022913 20 306 0.0 0.0 0.00 0.00 0.00 62 1016.9
20260831022412 20 309 0.0 0.0 0.00 0.00 0.00 63 1016.9
20260831021906 20 308 1.6 1.6 0.00 0.00 0.00 62 1017.0
20260831021406 20 316 0.0 0.0 0.00 0.00 0.00 61 1017.0
20260831020902 20 310 1.6 1.6 0.00 0.00 0.00 60 1017.0
20260831020401 20 336 3.2 3.2 0.00 0.00 0.00 60 1017.0
20260831015856 20 134 3.2 4.8 0.00 0.00 0.00 60 1017.2
20260831015352 20 306 3.2 3.2 0.00 0.00 0.00 59 1017.0
20260831014852 21 281 1.6 4.8 0.00 0.00 0.00 59 1017.1
20260831014347 21 308 0.0 1.6 0.00 0.00 0.00 59 1017.3
20260831013843 21 334 1.6 1.6 0.00 0.00 0.00 58 1017.2
20260831013338 21 309 3.2 3.2 0.00 0.00 0.00 57 1017.0
20260831012832 21 296 0.0 1.6 0.00 0.00 0.00 56 1017.0
20260831012328 21 308 0.0 1.6 0.00 0.00 0.00 56 1017.0
20260831011828 21 157 0.0 1.6 0.00 0.00 0.00 56 1017.3
20260831011323 21 306 0.0 0.0 0.00 0.00 0.00 55 1017.2
20260831010819 21 309 0.0 1.6 0.00 0.00 0.00 56 1017.4
20260831010318 21 303 0.0 1.6 0.00 0.00 0.00 56 1017.4
20260831005814 21 320 0.0 1.6 0.00 0.00 0.00 55 1017.5
20260831005310 21 318 3.2 4.8 0.00 0.00 0.00 55 1017.6
20260831004804 21 322 0.0 1.6 0.00 0.00 0.00 55 1017.6
20260831004301 21 247 1.6 3.2 0.00 0.00 0.00 55 1017.6
20260831003756 21 276 3.2 3.2 0.00 0.00 0.00 54 1017.7
20260831003252 21 323 0.0 1.6 0.00 0.00 0.00 54 1017.6
20260831002751 21 319 1.6 1.6 0.00 0.00 0.00 53 1017.8
20260831002250 21 288 1.6 1.6 0.00 0.00 0.00 52 1017.9
20260831001747 21 295 3.2 3.2 0.00 0.00 0.00 53 1017.7
20260831001241 21 274 1.6 1.6 0.00 0.00 0.00 52 1018.0
20260831000738 21 303 1.6 1.6 0.00 0.00 0.00 52 1017.7
20260831000233 21 296 3.2 4.8 0.00 0.00 0.00 54 1017.9
20260830235732 21 303 3.2 3.2 0.00 0.00 0.00 55 1018.0
20260830235227 21 294 3.2 3.2 0.00 0.00 0.00 53 1017.8
20260830234722 21 302 1.6 1.6 0.00 0.00 0.00 53 1018.0
20260830234218 21 304 1.6 3.2 0.00 0.00 0.00 53 1018.0
20260830233713 21 306 4.8 4.8 0.00 0.00 0.00 53 1018.0
20260830233209 21 281 1.6 1.6 0.00 0.00 0.00 53 1018.4
20260830232704 21 310 1.6 1.6 0.00 0.00 0.00 53 1018.1
20260830232200 21 301 0.0 1.6 0.00 0.00 0.00 54 1018.2
20260830231656 21 305 1.6 3.2 0.00 0.00 0.00 54 1018.4
20260830231155 21 301 1.6 1.6 0.00 0.00 0.00 53 1018.3
20260830230650 21 288 3.2 3.2 0.00 0.00 0.00 53 1018.2
20260830230145 21 269 1.6 1.6 0.00 0.00 0.00 54 1018.2
20260830225640 21 239 1.6 3.2 0.00 0.00 0.00 53 1018.4
20260830225135 21 304 3.2 3.2 0.00 0.00 0.00 53 1018.4
20260830224634 21 274 1.6 1.6 0.00 0.00 0.00 54 1018.7
20260830224130 21 45 4.8 4.8 0.00 0.00 0.00 54 1018.5
20260830223627 21 310 3.2 3.2 0.00 0.00 0.00 54 1018.9
20260830223126 21 299 1.6 1.6 0.00 0.00 0.00 55 1018.8
20260830222620 21 299 1.6 3.2 0.00 0.00 0.00 54 1019.1
20260830222117 21 338 1.6 1.6 0.00 0.00 0.00 54 1019.0
20260830221612 21 295 3.2 8.0 0.00 0.00 0.00 54 1019.2
20260830221108 21 309 0.0 0.0 0.00 0.00 0.00 55 1019.4
20260830220603 21 288 1.6 3.2 0.00 0.00 0.00 53 1019.3
20260830220056 21 288 3.2 8.0 0.00 0.00 0.00 54 1019.3
20260830215555 21 322 1.6 3.2 0.00 0.00 0.00 54 1019.6
20260830215049 21 281 3.2 4.8 0.00 0.00 0.00 54 1019.6
20260830214544 21 274 4.8 4.8 0.00 0.00 0.00 53 1019.5
20260830214039 21 211 4.8 4.8 0.00 0.00 0.00 54 1019.6
20260830213534 21 305 1.6 1.6 0.00 0.00 0.00 54 1019.7
20260830213029 21 79 8.0 11.3 0.00 0.00 0.00 54 1019.8
20260830212525 21 299 1.6 1.6 0.00 0.00 0.00 54 1020.1
20260830212020 20 312 3.2 3.2 0.00 0.00 0.00 55 1019.9
20260830211515 20 161 1.6 3.2 0.00 0.00 0.00 56 1020.1
20260830211014 20 302 1.6 1.6 0.00 0.00 0.00 56 1020.0
20260830210509 21 2 3.2 3.2 0.00 0.00 0.00 54 1020.0
20260830210009 20 269 1.6 3.2 0.00 0.00 0.00 56 1020.1
20260830205506 20 303 1.6 1.6 0.00 0.00 0.00 54 1019.9
20260830205003 20 323 0.0 1.6 0.00 0.00 0.00 55 1019.9
20260830204501 20 300 1.6 1.6 0.00 0.00 0.00 55 1020.1
20260830203955 20 311 1.6 1.6 0.00 0.00 0.00 54 1020.4
20260830203452 20 304 0.0 1.6 0.00 0.00 0.00 56 1020.5
20260830202951 20 306 0.0 0.0 0.00 0.00 0.00 56 1020.5
20260830202446 20 307 1.6 1.6 0.00 0.00 0.00 55 1020.5
20260830201943 20 260 0.0 1.6 0.00 0.00 0.00 57 1020.6
20260830201441 20 163 4.8 8.0 0.00 0.00 0.00 55 1020.8
20260830200937 20 282 0.0 0.0 0.00 0.00 0.00 56 1020.7
20260830200436 20 106 3.2 3.2 0.00 0.00 0.00 56 1020.8
20260830195931 20 200 3.2 3.2 0.00 0.00 0.00 54 1020.7
20260830195426 20 301 0.0 0.0 0.00 0.00 0.00 57 1020.6
20260830194925 19 304 1.6 1.6 0.00 0.00 0.00 57 1020.9
20260830194424 20 304 1.6 1.6 0.00 0.00 0.00 55 1020.8
20260830193924 20 332 4.8 4.8 0.00 0.00 0.00 54 1020.9
20260830193423 20 5 1.6 1.6 0.00 0.00 0.00 55 1020.8
20260830192919 20 169 1.6 1.6 0.00 0.00 0.00 55 1020.7
20260830192414 20 287 3.2 4.8 0.00 0.00 0.00 56 1021.0
20260830191909 20 307 1.6 1.6 0.00 0.00 0.00 56 1021.2
20260830191408 19 312 3.2 4.8 0.00 0.00 0.00 58 1021.2
20260830190904 19 298 4.8 4.8 0.00 0.00 0.00 59 1021.1
20260830190359 18 208 1.6 3.2 0.00 0.00 0.00 61 1021.3
20260830185858 18 311 1.6 1.6 0.00 0.00 0.00 61 1021.3
20260830185354 18 311 0.0 1.6 0.00 0.00 0.00 62 1021.1
20260830184848 18 303 1.6 3.2 0.00 0.00 0.00 63 1021.5
20260830184348 18 297 1.6 3.2 0.00 0.00 0.00 62 1021.3
20260830183843 17 315 0.0 1.6 0.00 0.00 0.00 65 1021.3
20260830183343 18 300 3.2 3.2 0.00 0.00 0.00 64 1021.5
20260830182838 17 309 0.0 0.0 0.00 0.00 0.00 66 1021.6
20260830182334 18 302 1.6 3.2 0.00 0.00 0.00 64 1021.6
20260830181830 17 321 1.6 3.2 0.00 0.00 0.00 66 1021.6
20260830181325 17 305 0.0 0.0 0.00 0.00 0.00 67 1021.5
20260830180824 17 308 1.6 1.6 0.00 0.00 0.00 66 1021.5
20260830180319 17 337 0.0 0.0 0.00 0.00 0.00 64 1021.0
20260830175818 17 310 0.0 0.0 0.00 0.00 0.00 65 1021.3
20260830175313 17 302 1.6 1.6 0.00 0.00 0.00 64 1021.3
20260830174808 18 232 1.6 1.6 0.00 0.00 0.00 65 1021.4
20260830174304 17 281 1.6 1.6 0.00 0.00 0.00 67 1021.5
20260830173803 17 345 1.6 1.6 0.00 0.00 0.00 68 1021.5
20260830173259 17 338 1.6 1.6 0.00 0.00 0.00 68 1021.5
20260830172755 16 337 0.0 0.0 0.00 0.00 0.00 70 1021.6
20260830172252 16 300 0.0 0.0 0.00 0.00 0.00 75 1021.5
20260830171747 16 322 0.0 0.0 0.00 0.00 0.00 76 1021.4
20260830171242 16 303 0.0 0.0 0.00 0.00 0.00 77 1021.4
20260830170737 16 313 0.0 1.6 0.00 0.00 0.00 77 1021.5
20260830170236 16 304 1.6 1.6 0.00 0.00 0.00 76 1021.4
20260830165735 16 311 1.6 1.6 0.00 0.00 0.00 76 1021.5
20260830165231 17 179 1.6 3.2 0.00 0.00 0.00 74 1021.3
20260830164727 17 266 1.6 1.6 0.00 0.00 0.00 74 1021.4
20260830164223 16 317 0.0 0.0 0.00 0.00 0.00 77 1021.5
20260830163720 16 323 0.0 1.6 0.00 0.00 0.00 77 1021.4
20260830163215 16 313 3.2 3.2 0.00 0.00 0.00 76 1021.5
20260830162709 17 195 3.2 3.2 0.00 0.00 0.00 73 1021.5
20260830162205 16 319 0.0 0.0 0.00 0.00 0.00 78 1021.9
20260830161700 17 309 1.6 1.6 0.00 0.00 0.00 75 1021.8
20260830161154 16 299 0.0 0.0 0.00 0.00 0.00 75 1021.9
20260830160651 16 306 1.6 1.6 0.00 0.00 0.00 77 1021.9
20260830160145 16 323 1.6 1.6 0.00 0.00 0.00 77 1022.0
20260830155642 16 315 1.6 1.6 0.00 0.00 0.00 76 1021.8
20260830155137 17 356 0.0 0.0 0.00 0.00 0.00 75 1021.8
20260830154632 16 32 1.6 1.6 0.00 0.00 0.00 77 1021.6
20260830154128 16 2 0.0 1.6 0.00 0.00 0.00 75 1021.9
20260830153625 17 358 0.0 1.6 0.00 0.00 0.00 75 1021.9
20260830153124 16 279 0.0 0.0 0.00 0.00 0.00 76 1021.9
20260830152623 16 318 0.0 0.0 0.00 0.00 0.00 75 1022.0
20260830152123 16 305 0.0 0.0 0.00 0.00 0.00 78 1022.0
20260830151618 15 305 0.0 0.0 0.00 0.00 0.00 79 1022.2
20260830151113 15 304 0.0 0.0 0.00 0.00 0.00 81 1022.1
20260830150612 13 304 0.0 0.0 0.00 0.00 0.00 85 1022.2
20260830150107 12 304 0.0 0.0 0.00 0.00 0.00 90 1022.0
20260830145606 12 303 0.0 0.0 0.00 0.00 0.00 92 1022.1
20260830145101 11 306 0.0 0.0 0.00 0.00 0.00 98 1021.9
20260830144557 11 306 0.0 0.0 0.00 0.00 0.00 99 1022.0
20260830144053 10 306 0.0 0.0 0.00 0.00 0.00 99 1022.1
20260830143549 10 306 0.0 0.0 0.00 0.00 0.00 99 1022.3
20260830143047 10 306 0.0 0.0 0.00 0.00 0.00 99 1022.2
20260830142542 9 306 0.0 0.0 0.00 0.00 0.00 99 1022.0
20260830142037 9 306 0.0 0.0 0.00 0.00 0.00 99 1021.9
20260830141532 9 306 0.0 0.0 0.00 0.00 0.00 99 1022.2
20260830141027 9 306 0.0 0.0 0.00 0.00 0.00 99 1022.1
20260830140526 9 306 0.0 0.0 0.00 0.00 0.00 99 1022.1
20260830140023 9 306 0.0 0.0 0.00 0.00 0.00 99 1022.0
20260830135512 9 306 0.0 0.0 0.00 0.00 0.00 99 1022.1
20260830135007 9 306 0.0 0.0 0.00 0.00 0.00 99 1022.0
20260830134503 9 306 0.0 0.0 0.00 0.00 0.00 99 1021.8
20260830133958 9 306 0.0 0.0 0.00 0.00 0.00 99 1021.9
20260830133454 9 306 0.0 0.0 0.00 0.00 0.00 99 1021.8
20260830132948 9 306 0.0 0.0 0.00 0.00 0.00 99 1022.0
20260830132444 9 306 0.0 0.0 0.00 0.00 0.00 99 1021.9
20260830131943 9 306 0.0 0.0 0.00 0.00 0.00 99 1022.0
20260830131437 9 306 0.0 0.0 0.00 0.00 0.00 99 1021.8
20260830130932 8 306 0.0 0.0 0.00 0.00 0.00 99 1021.6
20260830130428 8 306 0.0 0.0 0.00 0.00 0.00 99 1021.6
20260830125926 8 306 0.0 0.0 0.00 0.00 0.00 99 1021.9
20260830125422 8 306 0.0 0.0 0.00 0.00 0.00 99 1021.6
20260830124920 8 306 0.0 0.0 0.00 0.00 0.00 99 1021.5
20260830124415 8 306 0.0 0.0 0.00 0.00 0.00 99 1021.6
20260830123912 8 306 0.0 0.0 0.00 0.00 0.00 99 1021.5
20260830123408 8 306 0.0 0.0 0.00 0.00 0.00 99 1021.4
20260830122906 8 306 0.0 0.0 0.00 0.00 0.00 99 1021.6
20260830122400 8 306 0.0 0.0 0.00 0.00 0.00 99 1021.6
20260830121855 8 306 0.0 0.0 0.00 0.00 0.00 99 1021.5
20260830121355 8 306 0.0 0.0 0.00 0.00 0.00 99 1021.5
20260830120850 8 306 0.0 0.0 0.00 0.00 0.00 99 1021.5
20260830120346 8 306 0.0 0.0 0.00 0.00 0.00 99 1021.4
20260830115842 8 306 0.0 0.0 0.00 0.00 0.00 99 1021.4
20260830115338 8 306 0.0 0.0 0.00 0.00 0.00 99 1021.5
20260830114833 8 306 0.0 0.0 0.00 0.00 0.00 99 1021.5
20260830114330 8 306 0.0 0.0 0.00 0.00 0.00 99 1021.8
20260830113824 8 306 0.0 0.0 0.00 0.00 0.00 99 1021.5
20260830113319 8 306 0.0 0.0 0.00 0.00 0.00 99 1021.4
20260830112815 9 306 0.0 0.0 0.00 0.00 0.00 99 1021.6
20260830112311 9 306 0.0 0.0 0.00 0.00 0.00 99 1021.3
20260830111807 9 306 0.0 0.0 0.00 0.00 0.00 99 1021.5
20260830111303 9 306 0.0 0.0 0.00 0.00 0.00 99 1021.4
20260830110802 9 306 0.0 0.0 0.00 0.00 0.00 99 1021.4
20260830110259 9 306 0.0 0.0 0.00 0.00 0.00 98 1021.5
20260830105758 9 306 0.0 0.0 0.00 0.00 0.00 99 1021.2
20260830105254 9 307 0.0 0.0 0.00 0.00 0.00 99 1021.5
20260830104750 9 306 0.0 0.0 0.00 0.00 0.00 98 1021.4
20260830104247 9 306 0.0 0.0 0.00 0.00 0.00 98 1021.4
20260830103745 10 306 0.0 0.0 0.00 0.00 0.00 99 1021.3
20260830103242 9 307 0.0 0.0 0.00 0.00 0.00 99 1021.4
20260830102739 9 307 0.0 0.0 0.00 0.00 0.00 98 1021.2
20260830102235 10 307 0.0 0.0 0.00 0.00 0.00 98 1021.2
20260830101731 9 307 0.0 0.0 0.00 0.00 0.00 98 1021.4
20260830101227 9 307 0.0 0.0 0.00 0.00 0.00 98 1021.1
20260830100720 10 307 0.0 0.0 0.00 0.00 0.00 98 1021.3
20260830100214 10 307 0.0 0.0 0.00 0.00 0.00 98 1021.4
20260830095713 10 307 0.0 0.0 0.00 0.00 0.00 98 1021.3
20260830095210 10 307 0.0 0.0 0.00 0.00 0.00 98 1021.4
20260830094705 10 307 0.0 0.0 0.00 0.00 0.00 97 1021.4
20260830094201 10 307 0.0 0.0 0.00 0.00 0.00 97 1021.5
20260830093656 10 307 0.0 0.0 0.00 0.00 0.00 97 1021.3
20260830093152 10 307 0.0 0.0 0.00 0.00 0.00 97 1021.2
20260830092652 10 307 0.0 0.0 0.00 0.00 0.00 97 1021.3
20260830092150 10 307 0.0 0.0 0.00 0.00 0.00 97 1021.2
20260830091649 10 307 0.0 0.0 0.00 0.00 0.00 97 1021.4
20260830091148 10 307 0.0 0.0 0.00 0.00 0.00 97 1021.0
20260830090643 10 307 0.0 0.0 0.00 0.00 0.00 97 1021.4
20260830090139 10 307 0.0 0.0 0.00 0.00 0.00 96 1021.2
20260830085638 10 307 0.0 0.0 0.00 0.00 0.00 96 1021.3
20260830085134 10 307 0.0 0.0 0.00 0.00 0.00 96 1021.4
20260830084630 10 307 0.0 0.0 0.00 0.00 0.00 96 1021.3
20260830084125 10 307 0.0 0.0 0.00 0.00 0.00 95 1021.3
20260830083620 10 307 0.0 0.0 0.00 0.00 0.00 95 1021.4
20260830083120 10 307 0.0 0.0 0.00 0.00 0.00 95 1021.4
20260830082615 10 307 0.0 0.0 0.00 0.00 0.00 95 1021.5
20260830082111 10 307 0.0 0.0 0.00 0.00 0.00 95 1021.6
20260830081607 10 307 0.0 0.0 0.00 0.00 0.00 94 1021.3
20260830081105 10 307 0.0 0.0 0.00 0.00 0.00 94 1021.4
20260830080600 11 307 0.0 0.0 0.00 0.00 0.00 93 1021.5
20260830080055 11 307 0.0 0.0 0.00 0.00 0.00 93 1021.2
20260830075550 11 307 0.0 0.0 0.00 0.00 0.00 92 1021.3
20260830075050 11 307 0.0 0.0 0.00 0.00 0.00 92 1021.3
20260830074547 11 307 0.0 0.0 0.00 0.00 0.00 91 1021.2
20260830074042 11 307 0.0 0.0 0.00 0.00 0.00 91 1021.1
20260830073538 11 307 0.0 0.0 0.00 0.00 0.00 91 1021.2
20260830073033 11 307 0.0 0.0 0.00 0.00 0.00 91 1021.3
20260830072528 11 307 0.0 0.0 0.00 0.00 0.00 91 1021.5
20260830072023 11 307 0.0 0.0 0.00 0.00 0.00 91 1021.5
20260830071518 11 307 0.0 0.0 0.00 0.00 0.00 90 1021.3
20260830071015 11 307 0.0 0.0 0.00 0.00 0.00 90 1021.2
20260830070511 11 307 0.0 0.0 0.00 0.00 0.00 89 1021.4
20260830070011 11 307 0.0 0.0 0.00 0.03 0.03 88 1021.4
20260830065510 11 307 0.0 0.0 0.00 0.03 0.03 88 1021.3
20260830065008 11 307 0.0 0.0 0.00 0.03 0.03 88 1021.1
20260830064504 12 307 0.0 0.0 0.00 0.03 0.03 88 1021.1
20260830063958 12 307 0.0 0.0 0.00 0.03 0.03 87 1021.1
20260830063458 12 307 0.0 0.0 0.00 0.03 0.03 87 1021.2
20260830062957 12 307 0.0 0.0 0.00 0.03 0.03 86 1021.2
20260830062457 12 307 0.0 0.0 0.00 0.03 0.03 85 1021.4
20260830061952 12 307 0.0 0.0 0.00 0.03 0.03 84 1021.2
20260830061447 12 307 0.0 0.0 0.00 0.03 0.03 84 1021.1
20260830060943 12 307 0.0 0.0 0.00 0.03 0.03 83 1021.1
20260830060440 13 307 0.0 0.0 0.00 0.03 0.03 82 1021.1
20260830055935 13 307 0.0 0.0 0.00 0.03 0.03 81 1021.1
20260830055430 13 307 0.0 0.0 0.00 0.03 0.03 80 1021.2
20260830054926 13 307 0.0 0.0 0.00 0.03 0.03 79 1021.3
20260830054422 14 307 0.0 0.0 0.00 0.03 0.03 78 1021.4
20260830053917 14 307 0.0 0.0 0.00 0.03 0.03 77 1021.2
20260830053413 15 307 0.0 0.0 0.00 0.03 0.03 76 1021.1
20260830052911 15 306 0.0 0.0 0.00 0.03 0.03 75 1021.3
20260830052407 15 303 0.0 0.0 0.00 0.03 0.03 75 1021.1
20260830051902 15 307 0.0 0.0 0.00 0.03 0.03 74 1021.1
20260830051357 15 308 0.0 0.0 0.00 0.03 0.03 73 1021.0
20260830050856 15 316 0.0 0.0 0.00 0.03 0.03 72 1020.8
20260830050352 15 302 0.0 0.0 0.00 0.03 0.03 72 1021.0
20260830045850 15 307 0.0 0.0 0.00 0.03 0.03 70 1021.1
20260830045345 16 307 0.0 0.0 0.00 0.03 0.03 70 1021.1
20260830044844 16 358 0.0 0.0 0.00 0.03 0.03 69 1021.0
20260830044340 16 317 0.0 0.0 0.00 0.03 0.03 69 1020.8
20260830043840 16 308 0.0 0.0 0.00 0.03 0.03 69 1021.0
20260830043335 16 304 0.0 0.0 0.00 0.03 0.03 68 1020.8
20260830042832 16 342 0.0 1.6 0.00 0.03 0.03 67 1020.8
20260830042322 16 310 0.0 0.0 0.00 0.03 0.03 67 1020.7
20260830041820 16 314 0.0 0.0 0.00 0.03 0.03 66 1021.0
20260830041314 16 305 0.0 1.6 0.00 0.03 0.03 67 1020.7
20260830040810 16 303 1.6 1.6 0.00 0.03 0.03 66 1020.6
20260830040307 16 301 0.0 0.0 0.00 0.03 0.03 65 1020.6
20260830035804 17 301 0.0 0.0 0.00 0.03 0.03 64 1020.4
20260830035259 17 308 0.0 0.0 0.00 0.03 0.03 63 1020.5
20260830034754 17 308 0.0 0.0 0.00 0.03 0.03 63 1020.3
20260830034254 17 315 0.0 0.0 0.00 0.03 0.03 61 1020.3
20260830033750 17 311 0.0 1.6 0.00 0.03 0.03 60 1020.4
20260830033250 17 302 0.0 0.0 0.00 0.03 0.03 60 1020.2
20260830032745 17 310 0.0 0.0 0.00 0.03 0.03 59 1020.2
20260830032239 18 310 1.6 1.6 0.00 0.03 0.03 58 1020.1
20260830031734 18 304 1.6 1.6 0.00 0.03 0.03 58 1020.2
20260830031230 18 232 1.6 3.2 0.00 0.03 0.03 57 1020.1
20260830030725 18 324 0.0 1.6 0.00 0.03 0.03 56 1019.9
20260830030221 18 306 0.0 0.0 0.00 0.03 0.03 55 1019.8
20260830025720 18 305 0.0 0.0 0.00 0.03 0.03 54 1019.9
20260830025219 18 320 0.0 1.6 0.00 0.03 0.03 53 1019.8